Location: Beckton
(51.5167°N, 0.0667°E)
Time: 00:38:29
(UTC+00:00)

Daily predictions for brighter satellites

Satellite Brightness Start Highest point End
(mag) Time Altitude Azimuth Time Altitude Azimuth Time Altitude Azimuth
SL-16 R/B 3.9 00:12:20 31° ENE 00:12:27 31° ENE 00:17:46 10° N
Cosmos 1943 Rocket 3.7 00:17:16 32° NNE 00:17:16 32° NNE 00:20:17 10° NNE
COSMOS 2455 4.1 00:18:59 37° NNW 00:18:59 37° NNW 00:23:45 10° NNE
CZ-2D R/B 4.5 00:18:56 10° NE 00:20:45 15° ENE 00:20:45 15° ENE
USA 229 DEB 4.3 00:19:23 10° NW 00:24:44 54° NNW 00:24:44 54° NNW
USA 229 4.3 00:19:29 10° NW 00:24:51 54° NNW 00:24:51 54° NNW
Cosmos 2297 Rocket 3.8 00:23:35 10° NNW 00:28:29 29° NE 00:28:49 28° NE
Resurs 1-4 Rocket 4.2 00:32:30 10° NE 00:34:54 19° ENE 00:34:54 19° ENE
NOSS 3-1 (A) 4.1 00:31:28 10° NW 00:37:40 67° NNW 00:37:40 67° NNW
Cosmos 2369 Rocket 3.5 00:41:06 36° NNE 00:41:06 36° NNE 00:44:28 10° NNE
CZ-4C R/B 3.5 00:47:10 39° NNW 00:47:10 39° NNW 00:52:52 10° NE
ATLAS 2AS CENTAUR R/B 4.3 00:49:03 10° WNW 00:56:11 34° N 01:03:00 10° NE
Cosmos 2227 Rocket 3.0 01:20:26 10° NNW 01:25:13 47° NNE 01:25:13 47° NNE
USA 234 3.4 01:28:25 10° E 01:34:55 71° NNE 01:37:43 37° NW
ADEOS II 3.5 01:34:02 10° NNE 01:38:27 30° E 01:38:27 30° E
Cosmos 2219 4.2 01:34:04 10° NNW 01:37:45 41° NNW 01:37:45 41° NNW
Cosmos 2181 Rocket 4.2 01:47:57 64° E 01:47:57 64° E 01:53:52 10° NNE
Cosmos 1959 Rocket 4.5 01:49:24 10° N 01:55:10 75° NNE 01:55:10 75° NNE
SL-16 R/B 3.1 01:57:26 46° NW 01:57:26 46° NW 02:01:53 10° NNW
Cosmos 2341 Rocket 4.4 01:52:54 10° NNW 01:57:55 53° NW 01:57:55 53° NW
Cosmos 1943 Rocket 4.1 01:58:47 19° NW 01:59:32 19° NNW 02:03:32 10° NNE
ARIANE 5 R/B 4.3 01:56:32 10° NE 02:00:36 23° E 02:01:51 21° ESE
IRS-1D 4.3 01:56:44 10° NNE 02:01:47 49° E 02:01:47 49° E
CZ-2D R/B 2.5 01:57:43 10° NNE 02:02:04 60° N 02:02:04 60° N
ATLAS 5 CENTAUR R/B 2.8 02:07:56 41° NE 02:07:56 41° NE 02:11:10 10° NE
NPP 3.8 02:03:46 10° NNE 02:08:28 68° NNE 02:08:28 68° NNE
Cosmos 2297 Rocket 3.3 02:07:25 10° NNW 02:10:32 34° NW 02:10:32 34° NW
CBERS-1 4.4 02:09:08 10° NNE 02:13:59 56° E 02:13:59 56° E
Resurs 1-4 Rocket 2.5 02:11:37 10° N 02:15:58 56° NNW 02:15:58 56° NNW
Cosmos 2082 4.0 02:11:39 10° NNW 02:17:21 67° ENE 02:20:23 28° SE
SL-19 R/B 4.4 02:21:28 62° NW 02:21:28 62° NW 02:26:13 10° NNW
Cosmos 2369 Rocket 4.0 02:22:52 18° NW 02:23:59 19° NNW 02:28:03 10° NNE
SJ 16-02 4.1 02:24:16 10° N 02:27:22 18° NE 02:30:28 10° E
Gbstr 26 Del rocket 4.4 02:27:25 46° W 02:30:18 88° N 02:38:02 10° E
Cosmos 1697 Rocket 3.6 02:32:33 36° SE 02:33:49 41° ESE 02:39:03 10° NE
CZ-4C R/B 4.2 02:32:20 13° NW 02:36:52 29° N 02:43:01 10° ENE
Cosmos 1980 Rocket 3.9 02:35:19 17° SE 02:38:10 26° ESE 02:42:45 10° NE
H-2A R/B 4.2 02:34:50 10° ESE 02:38:32 27° ENE 02:42:18 10° N
USA 267 3.4 02:34:24 10° ENE 02:40:53 60° SE 02:42:17 50° S
Cosmos 2221 4.4 02:42:57 20° NNW 02:42:57 20° NNW 02:44:51 10° N
NOSS 2-2 (E) 4.3 02:37:53 10° NW 02:43:18 88° SW 02:50:53 10° SE
Cosmos 2263 Rocket 3.7 02:38:09 10° NNW 02:43:23 37° NE 02:48:35 10° ESE
SL-8 R/B 4.4 02:46:01 43° SE 02:46:01 43° SE 02:49:26 10° ESE
Cosmos 1818 3.4 02:46:11 74° W 02:46:30 77° NW 02:52:00 10° NE
ATLAS 2AS CENTAUR R/B 4.2 02:41:56 10° NW 02:49:09 39° NNE 02:55:55 10° E
NOSS 2-2 (D) 4.3 02:46:26 10° NW 02:51:44 90° NE 02:59:10 10° SE
USA 307 4.4 02:52:25 28° SE 02:52:25 28° SE 02:55:41 10° E
Cosmos 1821 Rocket 3.9 02:46:48 10° N 02:53:11 90° E 02:56:30 30° S
Cosmos 1470 Rocket 3.8 02:50:08 10° N 02:54:34 69° ENE 02:55:25 54° SE
USA 308 4.3 02:55:23 29° SE 02:55:23 29° SE 02:58:48 10° E
SL-24 R/B 4.3 02:59:50 49° SSE 03:01:10 88° ENE 03:06:31 10° NNW
Celestis-02/Orion 38 4.4 03:02:44 10° SSE 03:08:00 74° WSW 03:13:10 10° NNW
Cosmos 1934 Rocket 4.1 03:02:07 10° N 03:08:12 72° ENE 03:14:15 10° SSE
Cosmos 1777 Rocket 3.8 03:03:31 10° NNW 03:08:45 74° WSW 03:12:06 22° SSE
Cosmos 2227 Rocket 3.7 03:04:47 10° NW 03:06:57 21° WNW 03:06:57 21° WNW
Cosmos 1238 Rocket 4.3 03:03:44 10° N 03:10:25 69° ENE 03:16:41 10° SSE
Cosmos 1992 Rocket 4.3 03:10:37 48° W 03:11:10 50° WNW 03:16:16 10° NNE
Cosmos 1782 3.5 03:10:11 36° SE 03:11:24 51° E 03:15:20 10° NNE
Lacrosse 5 2.4 03:12:00 41° S 03:13:07 49° SE 03:18:01 10° ENE
Cosmos 1656 3.6 03:12:05 53° WSW 03:13:12 66° WNW 03:18:43 10° NNE
Cosmos 405 4.4 03:16:46 28° NNW 03:16:46 28° NNW 03:18:48 10° N
CZ-2C R/B 3.9 03:13:15 10° NNE 03:16:50 40° E 03:18:31 25° SSE
Meteor 1-20 Rocket 4.1 03:11:26 10° NNW 03:16:51 63° W 03:18:42 40° SSW
Cosmos 1515 Rocket 3.9 03:15:08 34° SSE 03:16:55 63° E 03:21:20 10° NNE
ADEOS Rocket 4.3 03:10:57 10° SE 03:17:12 43° ENE 03:22:53 10° N
USA 234 3.2 03:11:40 10° SE 03:18:05 58° SW 03:24:32 10° WNW
ADEOS II 2.3 03:13:30 10° N 03:18:34 49° WNW 03:19:23 45° W
CZ-4B R/B 3.9 03:15:19 10° N 03:20:06 44° WNW 03:20:43 42° W
USA 276 3.3 03:21:38 36° ESE 03:21:38 36° ESE 03:23:57 10° E
Nadezhda 3 Rocket 3.9 03:18:39 34° SSW 03:21:28 78° W 03:27:40 10° N
Cosmos 220 Rocket 4.3 03:24:54 46° WNW 03:25:01 47° WNW 03:29:10 10° NNE
SL-08 R/B 3.8 03:26:12 39° WNW 03:26:12 39° WNW 03:29:56 10° NNW
Cosmos 972 Rocket 3.8 03:24:15 41° SSW 03:26:01 87° ESE 03:30:58 10° NNE
Cosmos 1356 3.6 03:23:34 10° N 03:27:02 70° ENE 03:28:27 32° SSE
Cosmos 1633 Rocket 4.2 03:23:21 10° NNW 03:26:00 28° NW 03:26:00 28° NW
MSX 4.1 03:21:56 10° NNE 03:27:42 66° ESE 03:32:39 14° S
Timation 1 Rocket 4.2 03:22:08 10° NW 03:28:07 71° WSW 03:34:05 10° SSE
Cosmos 1328 Rocket 3.6 03:28:50 53° WSW 03:29:33 62° WNW 03:34:00 10° N
Cosmos 1605 Rocket 4.3 03:24:33 10° N 03:30:58 71° ENE 03:37:22 10° SSE
IDEFIX/ARIANE 42P 2.5 03:26:16 10° NNE 03:31:34 87° WNW 03:34:28 28° SSW
Cosmos 2278 4.0 03:28:10 24° S 03:31:35 65° ESE 03:37:15 10° NE
Cosmos 1535 Rocket 4.5 03:25:27 10° N 03:31:51 84° W 03:38:16 10° S
Cosmos 1933 Rocket 3.4 03:27:35 10° NNW 03:31:58 75° W 03:34:18 27° S
CZ-3B R/B 1.9 03:32:05 55° WSW 03:32:49 86° NNW 03:41:18 10° ENE
Cosmos 1606 4.0 03:34:14 27° NW 03:34:14 27° NW 03:36:47 10° N
Cosmos 2228 Rocket 3.8 03:31:11 12° SSE 03:35:05 51° E 03:39:23 10° NNE
IRS-1C 4.3 03:30:10 10° N 03:35:23 54° WNW 03:37:13 36° WSW
Cosmos 1151 Rocket 3.3 03:37:30 44° W 03:38:01 47° WNW 03:42:14 10° N
Cosmos 2369 3.7 03:36:41 32° SW 03:39:28 82° WNW 03:45:16 10° NNE
ARIANE 5 R/B 2.6 03:35:03 10° N 03:40:06 60° WNW 03:42:11 34° SW
SL-16 R/B 4.5 03:42:32 11° WNW 03:42:32 11° WNW 03:42:58 10° WNW
IRS-1D 4.5 03:36:19 10° N 03:41:01 32° WNW 03:42:15 29° W
CZ-2D R/B 3.7 03:38:54 10° N 03:42:25 18° NW 03:43:22 17° WNW
CZ-4C R/B 2.9 03:42:39 20° S 03:45:04 75° WSW 03:48:40 10° NNW
Cosmos 1869 Rocket 3.7 03:46:34 10° N 03:50:58 74° E 03:55:16 10° SSE
ATLAS 5 CENTAUR R/B 3.2 03:49:28 19° WNW 03:51:39 28° NNW 03:56:02 10° NE
Cosmos 1933 4.3 03:54:06 29° WNW 03:54:24 29° WNW 03:58:01 10° N
Resurs 1-4 Rocket 3.9 03:53:01 10° NNW 03:55:47 15° NW 03:57:02 13° WNW
Meteor 1-4 Rocket 4.1 03:54:07 10° SSE 03:57:17 35° E 04:00:32 10° NNE
USA 305 3.0 03:58:51 31° SW 04:00:48 68° SSE 04:05:02 10° ENE
X-37B 1.9 04:01:25 25° S 04:01:40 25° S 04:04:22 10° ESE
CZ-2D R/B 3.9 03:59:37 10° N 04:03:35 43° WNW 04:05:24 27° WSW
Cosmos 2360 4.3 04:00:37 23° SW 04:04:14 66° NW 04:09:59 10° NNE
USA 306 3.0 04:02:46 29° SW 04:04:52 71° SSE 04:09:07 10° ENE
SJ 16-02 1.2 04:02:06 10° NNW 04:06:30 75° WSW 04:10:52 10° SSE
Cosmos 389 Rocket 2.6 04:06:11 30° SW 04:07:37 51° WNW 04:11:08 10° N
Cosmos 1727 Rocket 4.5 04:01:33 10° S 04:07:48 65° E 04:14:05 10° NNE
PSLV R/B 3.7 04:04:39 10° NNE 04:08:53 74° ESE 04:13:04 10° S
Meteor 1-26 Rocket 4.4 04:06:29 20° SW 04:09:55 47° WNW 04:15:09 10° N
ASTEX 1 4.0 04:08:02 10° N 04:12:39 39° WNW 04:15:51 18° SW
H-2A R/B 2.4 04:10:09 10° S 04:14:19 43° W 04:18:36 10° NNW
ERS-2 2.1 04:11:32 10° S 04:15:09 62° WSW 04:18:49 10° NNW
Iridium 2 4.2 04:14:43 24° SW 04:16:26 37° WNW 04:19:59 10° N
CZ-2C R/B 2.6 04:11:24 10° NNE 04:16:31 82° ESE 04:21:42 10° SSW
Cosmos 1339 Rocket 4.5 04:10:42 10° SSW 04:16:59 72° WNW 04:23:13 10° N
NOSS 3-4 (A) 4.1 04:10:14 10° NW 04:17:03 73° NE 04:24:38 10° SE
NOSS 3-4 (C) 4.1 04:10:20 10° NW 04:17:09 73° NE 04:24:44 10° SE
Cosmos 1697 Rocket 3.2 04:14:18 21° WSW 04:17:47 44° NW 04:23:10 10° NNE
Gbstr 26 Del rocket 4.5 04:09:58 11° WNW 04:17:50 66° SSW 04:25:01 10° SE
Cosmos 192 4.3 04:14:10 14° SSW 04:18:23 76° WNW 04:23:20 10° NNE
PAYLOAD A 3.7 04:15:22 10° NNE 04:20:07 84° WNW 04:24:48 10° SSW
Cosmos 1980 Rocket 2.2 04:17:07 16° SW 04:21:44 66° NW 04:27:24 10° NNE
USA 267 3.4 04:17:31 10° ENE 04:24:02 70° NNW 04:29:37 15° W
Cosmos 990 Rocket 3.9 04:20:56 10° NNW 04:26:06 72° WSW 04:31:18 10° SSE
SL-8 R/B 4.4 04:24:00 19° W 04:26:51 35° SSW 04:31:12 10° SE
CZ-4C R/B 3.9 04:20:48 10° NW 04:27:04 43° NNE 04:34:27 10° E
Cosmos 2322 Rocket 3.4 04:21:55 10° S 04:27:14 43° ESE 04:32:36 10° NE
Meteor 1-10 Rocket 4.3 04:21:32 10° SSW 04:27:18 86° WNW 04:33:15 10° NNE
Cosmos 1459 Rocket 4.3 04:21:13 10° N 04:27:22 71° ENE 04:33:24 10° SSE
Cosmos 2263 Rocket 2.3 04:22:03 10° NW 04:27:31 52° WSW 04:32:59 10° S
NOSS 3-3 (A) 4.2 04:22:47 10° SSW 04:28:36 71° SE 04:35:14 10° NE
NOSS 3-3 (C) 4.2 04:22:58 10° SSW 04:28:43 70° SE 04:35:20 10° NE
USA 307 2.9 04:28:36 18° WSW 04:31:43 89° SE 04:36:00 10° ENE
Cosmos 1812 2.7 04:28:11 10° SSW 04:31:59 61° WNW 04:35:50 10° N
Cosmos 468 Rocket 4.4 04:26:45 10° S 04:32:00 66° ESE 04:37:14 10° NNE
Cosmos 1844 Rocket 3.6 04:28:56 10° NNW 04:34:27 52° NE 04:39:58 10° SE
USA 308 2.9 04:31:34 17° WSW 04:34:49 89° NNW 04:39:06 10° ENE
SL-16 R/B 2.9 04:29:18 10° S 04:34:50 57° ESE 04:40:24 10° NE
Cosmos 1500 3.9 04:31:33 10° NNW 04:35:00 31° W 04:38:24 10° SSW
COSMO-SKYMED 1 3.7 04:32:54 10° SE 04:37:05 49° ENE 04:41:18 10° N
ATLAS CENTAUR R/B 3.4 04:29:05 10° WNW 04:40:23 67° NNE 04:44:38 10° E
Cosmos 1666 2.7 04:37:13 10° NNW 04:41:00 56° W 04:44:44 10° S
ATLAS 2AS CENTAUR R/B 3.0 04:33:29 10° NW 04:41:11 81° NE 04:48:14 10° SE
ERBS 3.5 04:43:25 10° SSW 04:46:35 38° SE 04:49:43 10° ENE
Cosmos 1782 4.4 04:45:49 13° WSW 04:48:02 19° WNW 04:50:56 10° NNW
CZ-4B R/B 1.6 04:46:12 10° S 04:49:13 43° W 04:52:21 10° NNW
Meteor 2-6 Rocket 4.5 04:44:36 10° SSW 04:50:06 51° WNW 04:55:49 10° N
CZ-2C R/B 4.1 04:48:10 10° NNW 04:51:04 21° WNW 04:53:55 10° WSW
Cosmos 1898 Rocket 3.7 04:49:33 10° NW 04:54:35 48° WSW 04:59:37 10° S
deb Chang Zheng 4 3.5 04:50:34 10° NNE 04:54:54 82° WNW 04:59:11 10° SSW
Lacrosse 5 2.1 04:51:11 11° W 04:56:04 61° NNW 05:01:07 10° ENE
USA 276 2.2 04:53:59 11° W 04:57:00 68° S 05:00:12 10° E
ADEOS II 4.1 04:55:43 10° NNW 04:57:06 11° NW 04:58:29 10° WNW
Cosmos 2173 Rocket 4.0 04:51:17 10° NNW 04:57:35 74° W 05:03:54 10° S
CZ-4B R/B 4.0 04:55:22 10° NNE 04:58:58 44° E 05:02:26 10° S
CZ-4B R/B 4.3 04:54:50 10° NNE 04:59:07 77° ESE 05:03:31 10° S
BREEZE-M DEB (TANK) 3.8 04:57:09 10° WSW 05:00:20 65° SSE 05:09:57 10° E
BREEZE-M DEB (TANK) 3.9 04:55:36 10° SW 05:01:02 28° S 05:03:35 10° ESE
USA 234 4.5 04:57:41 10° SSW 05:02:05 19° SW 05:06:31 10° W
ADEOS Rocket 3.5 04:56:16 10° S 05:02:44 44° W 05:08:38 10° NNW
USA 32 4.4 04:59:35 10° NNW 05:04:34 44° W 05:09:30 10° SSW
ADEOS 3.6 05:01:41 10° NNE 05:06:54 71° WNW 05:12:05 10° SSW
Cosmos 2061 Rocket 4.2 05:00:44 10° N 05:07:13 89° WSW 05:13:39 10° S
Cosmos 1707 Rocket 3.7 05:03:56 10° SSW 05:08:09 52° WNW 05:12:26 10° N
Cosmos 44 3.5 05:03:51 10° WSW 05:08:12 49° NW 05:12:51 10° NE
Cosmos 921 Rocket 3.7 05:05:57 10° SW 05:09:46 34° WNW 05:13:37 10° N
IDEFIX/ARIANE 42P 4.1 05:06:58 10° NNW 05:10:29 18° NW 05:13:58 10° W
Cosmos 372 Rocket 4.0 05:06:34 10° NNW 05:11:47 87° WSW 05:16:54 10° SSE
